Regional Weather Roundup
Issued by NWS

Home | Current Version | Previous Version | Text Only | Print | Product List | Glossary Off
Versions: 1 2 3 4 5 6 7 8 9 10 11 12 13 14 15 16 17 18 19 20 21 22 23 24 25 26 27 28 29 30 31 32 33 34 35 36 37 38 39 40 41 42 43 44 45 46 47 48 49 50

000
ASUS43 KIND 230159
RWRIN

WEATHER ROUNDUP FOR INDIANA
NATIONAL WEATHER SERVICE INDIANAPOLIS IN
1000 PM EDT FRI MAY 22 2015

NOTE: "FAIR" INDICATES FEW OR NO CLOUDS BELOW 12,000 FEET WITH NO
SIGNIFICANT WEATHER AND/OR OBSTRUCTIONS TO VISIBILITY.

* - STATION DOES NOT REPORT WEATHER SUCH AS PRECIPITATION OR FOG.

+ - STATION NOT QUALITY CONTROLLED BY THE NATIONAL WEATHER SERVICE.
    USE DATA WITH CAUTION...ESPECIALLY DEWPOINT AND RELATIVE
    HUMIDITY OBSERVATIONS.

INZ001>003-010>013-019-020-230300-
NORTHWEST INDIANA

CITY           SKY/WX    TMP DP  RH WIND       PRES   REMARKS
GARY /AIRPORT/ MOCLDY    55  41  58 E7        30.27S

$$

LMZ046-743>745-230300-
SOUTHERN LAKE MICHIGAN

STATION/POSITION TIME  TEMP    WIND        PRES    WAVE
                       AIR SEA DIR/SP/G            HT
                 (UTC) (F)     (DEG/KT/KT) (MB)    (FT)
BURNS HARBOR     0100   54      80/  5/  9 1025.4R
MICHIGAN CITY    0100   54      40/ 11/ 12   N/A
5NW MICH CITY    0100   53 51   80/ 10/ 12   N/A     2

$$

INZ004-005-014>016-021>024-230300-
NORTH CENTRAL INDIANA

CITY           SKY/WX    TMP DP  RH WIND       PRES   REMARKS
GOSHEN         MOCLDY    56  35  45 N7        30.29R
SOUTH BEND     MOCLDY    57  33  40 NE7       30.30S
WARSAW +       CLOUDY    57  34  41 N6        30.28R

$$

INZ006>009-017-018-025>027-230300-
NORTHEAST INDIANA

CITY           SKY/WX    TMP DP  RH WIND       PRES   REMARKS
ANGOLA *+      CLEAR     57  34  41 N3        30.28S
FORT WAYNE     CLOUDY    59  40  49 N6        30.28R

$$

INZ028-029-035-036-043>045-051>053-230300-
WEST CENTRAL INDIANA

CITY           SKY/WX    TMP DP  RH WIND       PRES   REMARKS
CRAWFORDSVL +  MOCLDY    58  40  52 CALM      30.25R
GREENCASTLE +  PTCLDY    61  45  55 CALM      30.25R
LAFAYETTE      MOCLDY    61  36  39 NE7       30.24R
TERRE HAUTE    MOCLDY    64  52  64 S3        30.25R

$$

INZ030>032-037>040-046>048-054>057-064-065-230300-
CENTRAL INDIANA

CITY           SKY/WX    TMP DP  RH WIND       PRES   REMARKS
GREENWOOD *+   PTCLDY    64  45  48 CALM      30.25R
INDIANAPOLIS   PTCLDY    66  45  46 CALM      30.24R
-EAGLE CREEK   PTCLDY    63  53  70 W3        30.24R
KOKOMO *+      PTCLDY    63  37  39 NE9       30.26R
MT COMFORT *+  PTCLDY    61  34  36 CALM      30.25R
SHELBYVILLE    PTCLDY    69  45  41 N3        30.24R

$$

INZ033-034-041-042-049-050-058-059-230300-
EAST CENTRAL INDIANA

CITY           SKY/WX    TMP DP  RH WIND       PRES   REMARKS
MUNCIE         PTCLDY    61  42  49 NE3       30.26R

$$

INZ060-061-067>069-081>083-085>088-230300-
SOUTHWEST INDIANA

CITY           SKY/WX    TMP DP  RH WIND       PRES   REMARKS
EVANSVILLE     CLOUDY    65  54  67 SW3       30.26R
HUNTINGBURG *+ MOCLDY    64  50  59 SW6       30.27R

$$

INZ062-063-066-070>080-084-089>092-230300-
SOUTH CENTRAL AND SOUTHEAST INDIANA

CITY           SKY/WX    TMP DP  RH WIND       PRES   REMARKS
BLOOMINGTON    PTCLDY    58  52  80 CALM      30.25R
MADISON *+     PTCLDY    59  46  63 CALM      30.28R
SEYMOUR +      FAIR      61  48  63 S3        30.25R

$$




USA.gov is the U.S. government's official web portal to all federal, state and local government web resources and services.